Terug naar catalogus

COSMOS 1275 DEB

ActiefPO
NORAD 12731·DEBRIS·🇷🇺 Russia

Gelanceerd Jun 4, 1981 vanaf Plesetsk Cosmodrome

Loading…

Volgende Passages (komende 24 uur)

TLE

VersSource: Space-Track

Epoch: Sep 14, 2026, 11:26 UTC

1 12731U 81053BY  26257.47656399  .00000313  00000-0  28256-3 0  9995
2 12731  82.9396 160.9861 0081779 305.9144 177.4269 13.79525534263395

Volg COSMOS 1275 DEB in realtime met AllMySat

Download on the App Store